Hourly Data Report for September 29, 2019

TORONTO CITY
ONTARIO
Current Station Operator: ECCC - MSC

43°40'00.000" N
79°24'00.000" W
112.50 m
6158355
71508
XTO

Download Data

Hourly Data (September 2019)
Hourly Data Report for September 29, 2019
TIME
LST
Temp Definition
°C
Dew Point Definition
°C
Rel Hum Definition
%
Precip. Amount Definition
mm

Wind Dir Definition
10's deg

Wind Spd Definition
km/h
Visibility Definition
km
Stn Press Definition
kPa
Hmdx Definition


Wind Chill Definition


Weather Definition


00:00 14.3 11.1 81 0.0       101.14     LegendNANA
01:00 13.4 10.5 82 0.0       101.23     LegendNANA
02:00 13.0 9.5 79 0.0       101.29     LegendNANA
03:00 12.2 8.8 79 0.0       101.29     LegendNANA
04:00 11.7 8.1 79 0.0       101.35     LegendNANA
05:00 11.2 7.6 78 0.0       101.41     LegendNANA
06:00 10.9 6.7 76 0.0       101.51     LegendNANA
07:00 10.4 6.2 75 0.0       101.61     LegendNANA
08:00 11.3 5.4 67 0.0       101.66     LegendNANA
09:00 12.1 3.4 55 0.0       101.70     LegendNANA
10:00 12.2 3.3 54 0.0       101.73     LegendNANA
11:00 13.1 3.8 53 0.0       101.71     LegendNANA
12:00 14.0 3.8 50 0.0       101.66     LegendNANA
13:00 13.3 4.1 54 0.0       101.63     LegendNANA
14:00 13.6 4.7 55 0.0       101.60     LegendNANA
15:00 13.7 5.1 56 0.0       101.55     LegendNANA
16:00 13.6 4.6 54 0.0       101.50     LegendNANA
17:00 13.7 4.5 54 0.0       101.48     LegendNANA
18:00 13.6 5.1 56 0.0       101.39     LegendNANA
19:00 13.7 5.8 59 0.0       101.34     LegendNANA
20:00 13.6 6.1 61 0.0       101.37     LegendNANA
21:00 13.5 5.4 58 0.0       101.35     LegendNANA
22:00 13.5 5.5 58 0.0       101.35     LegendNANA
23:00 14.2 6.3 59 0.0       101.34     LegendNANA

Notes on Data Quality.

Legend

  • E = Estimated
  • M = Missing
  • NA = Not Available*
  • [empty] = Indicates an unobserved value
Date modified: